Hourly Weather Emona

Today, 6 July, Monday

Time Temperature Precipitation Wind Pressure Humidity
00:00 +24°C° 0 mm 2 mps 756 mmHg 87%
01:00 +24°C° 0 mm 2 mps 756 mmHg 87%
02:00 +22°C° 0 mm 3 mps 756 mmHg 83%
03:00 +22°C° 0 mm 3 mps 755 mmHg 84%
04:00 +22°C° 0 mm 3 mps 755 mmHg 85%
05:00 +21°C° 0 mm 3 mps 755 mmHg 87%
06:00 +24°C° 0 mm 3 mps 755 mmHg 82%
07:00 +26°C° 0 mm 4 mps 755 mmHg 77%
08:00 +28°C° 0 mm 4 mps 755 mmHg 71%
09:00 +29°C° 0 mm 4 mps 754 mmHg 66%
10:00 +30°C° 0 mm 5 mps 754 mmHg 62%
11:00 +33°C° 0 mm 5 mps 754 mmHg 57%
12:00 +33°C° 0 mm 5 mps 754 mmHg 56%
13:00 +33°C° 0 mm 5 mps 753 mmHg 55%
14:00 +34°C° 0 mm 5 mps 753 mmHg 50%
15:00 +34°C° 0 mm 4 mps 753 mmHg 52%
16:00 +33°C° 0 mm 4 mps 753 mmHg 54%
17:00 +33°C° 0 mm 4 mps 752 mmHg 56%
18:00 +30°C° 0 mm 3 mps 752 mmHg 66%
19:00 +27°C° 0 mm 2 mps 752 mmHg 76%
20:00 +25°C° 0 mm 1 mps 752 mmHg 86%
21:00 +25°C° 0 mm 1 mps 752 mmHg 87%
22:00 +24°C° 0 mm 1 mps 752 mmHg 87%
23:00 +24°C° 0 mm 1 mps 752 mmHg 88%

Tomorrow, 7 July, Tuesday

Time Temperature Precipitation Wind Pressure Humidity
00:00 +24°C° 0 mm 1 mps 752 mmHg 88%
01:00 +24°C° 0 mm 1 mps 752 mmHg 87%
02:00 +23°C° 0 mm 1 mps 752 mmHg 87%
03:00 +23°C° 0 mm 1 mps 751 mmHg 87%
04:00 +23°C° 0 mm 1 mps 751 mmHg 87%
05:00 +23°C° 0 mm 1 mps 751 mmHg 87%
06:00 +25°C° 0 mm 2 mps 752 mmHg 80%
07:00 +27°C° 0 mm 2 mps 752 mmHg 73%
08:00 +28°C° 0 mm 2 mps 752 mmHg 67%
09:00 +30°C° 0 mm 2 mps 752 mmHg 61%
10:00 +33°C° 0 mm 3 mps 752 mmHg 55%
11:00 +34°C° 0 mm 3 mps 752 mmHg 49%
12:00 +34°C° 0 mm 4 mps 752 mmHg 49%
13:00 +35°C° 0 mm 4 mps 752 mmHg 48%
14:00 +35°C° 0 mm 4 mps 753 mmHg 47%
15:00 +34°C° 0 mm 5 mps 752 mmHg 51%
16:00 +33°C° 0 mm 6 mps 752 mmHg 54%
17:00 +32°C° 0 mm 7 mps 752 mmHg 58%
18:00 +29°C° 0.1 mm 7 mps 753 mmHg 60%
19:00 +27°C° 0.1 mm 8 mps 754 mmHg 62%
20:00 +24°C° 0.1 mm 8 mps 755 mmHg 64%
21:00 +23°C° 0.2 mm 7 mps 755 mmHg 67%
22:00 +22°C° 0.2 mm 7 mps 756 mmHg 70%
23:00 +20°C° 0.2 mm 6 mps 757 mmHg 72%

Day after tomorrow, 8 July, Wednesday

Time Temperature Precipitation Wind Pressure Humidity
00:00 +20°C° 0.1 mm 6 mps 757 mmHg 74%
01:00 +19°C° 0.1 mm 6 mps 758 mmHg 77%
02:00 +17°C° 0.1 mm 6 mps 759 mmHg 79%
03:00 +17°C° 0 mm 6 mps 759 mmHg 78%
04:00 +16°C° 0 mm 6 mps 759 mmHg 78%
05:00 +16°C° 0 mm 5 mps 760 mmHg 77%
06:00 +17°C° 0 mm 6 mps 760 mmHg 72%
07:00 +19°C° 0 mm 6 mps 761 mmHg 67%
08:00 +21°C° 0 mm 6 mps 761 mmHg 61%
09:00 +22°C° 0 mm 6 mps 761 mmHg 57%
10:00 +23°C° 0 mm 6 mps 761 mmHg 54%
11:00 +25°C° 0 mm 5 mps 762 mmHg 50%
12:00 +26°C° 0 mm 5 mps 762 mmHg 48%
13:00 +27°C° 0 mm 5 mps 762 mmHg 46%
14:00 +28°C° 0 mm 5 mps 761 mmHg 45%
15:00 +27°C° 0 mm 5 mps 761 mmHg 46%
16:00 +27°C° 0 mm 5 mps 761 mmHg 47%
17:00 +27°C° 0 mm 4 mps 761 mmHg 48%
18:00 +25°C° 0 mm 4 mps 762 mmHg 54%
19:00 +22°C° 0 mm 3 mps 762 mmHg 61%
20:00 +20°C° 0 mm 2 mps 762 mmHg 67%
21:00 +20°C° 0 mm 2 mps 762 mmHg 69%
22:00 +20°C° 0 mm 1 mps 762 mmHg 71%
23:00 +19°C° 0 mm 1 mps 762 mmHg 72%

9 July, Thursday

Time Temperature Precipitation Wind Pressure Humidity
00:00 +19°C° 0 mm 1 mps 763 mmHg 72%
01:00 +19°C° 0 mm 1 mps 763 mmHg 71%
02:00 +18°C° 0 mm 2 mps 763 mmHg 71%
03:00 +17°C° 0 mm 2 mps 763 mmHg 72%
04:00 +17°C° 0 mm 2 mps 763 mmHg 72%
05:00 +17°C° 0 mm 2 mps 763 mmHg 73%
06:00 +19°C° 0 mm 2 mps 763 mmHg 66%
07:00 +21°C° 0 mm 2 mps 763 mmHg 59%
08:00 +25°C° 0 mm 2 mps 763 mmHg 52%
09:00 +26°C° 0 mm 3 mps 763 mmHg 48%
10:00 +27°C° 0 mm 4 mps 763 mmHg 44%
11:00 +29°C° 0 mm 4 mps 764 mmHg 40%
12:00 +29°C° 0 mm 5 mps 763 mmHg 40%
13:00 +29°C° 0 mm 5 mps 763 mmHg 40%
14:00 +29°C° 0 mm 5 mps 763 mmHg 40%
15:00 +29°C° 0 mm 5 mps 763 mmHg 43%
16:00 +28°C° 0 mm 5 mps 762 mmHg 46%
17:00 +28°C° 0 mm 5 mps 762 mmHg 49%
18:00 +26°C° 0 mm 4 mps 763 mmHg 57%
19:00 +23°C° 0 mm 4 mps 763 mmHg 66%
20:00 +21°C° 0 mm 3 mps 763 mmHg 74%
21:00 +21°C° 0 mm 2 mps 763 mmHg 76%
22:00 +20°C° 0 mm 2 mps 763 mmHg 79%
23:00 +19°C° 0 mm 2 mps 763 mmHg 81%

10 July, Friday

Time Temperature Precipitation Wind Pressure Humidity
00:00 +19°C° 0 mm 2 mps 763 mmHg 82%
01:00 +19°C° 0 mm 2 mps 763 mmHg 82%
02:00 +19°C° 0 mm 2 mps 763 mmHg 82%
03:00 +19°C° 0 mm 2 mps 763 mmHg 82%
04:00 +19°C° 0 mm 2 mps 763 mmHg 83%
05:00 +18°C° 0 mm 3 mps 762 mmHg 83%
06:00 +21°C° 0 mm 4 mps 763 mmHg 76%
07:00 +23°C° 0 mm 5 mps 763 mmHg 69%
08:00 +26°C° 0 mm 6 mps 763 mmHg 62%
09:00 +27°C° 0 mm 6 mps 763 mmHg 58%
10:00 +28°C° 0 mm 6 mps 763 mmHg 55%
11:00 +29°C° 0 mm 7 mps 763 mmHg 51%
12:00 +29°C° 0 mm 6 mps 762 mmHg 50%
13:00 +29°C° 0 mm 6 mps 762 mmHg 50%
14:00 +30°C° 0 mm 6 mps 762 mmHg 49%
15:00 +29°C° 0 mm 6 mps 762 mmHg 51%
16:00 +29°C° 0 mm 6 mps 761 mmHg 52%
17:00 +28°C° 0 mm 7 mps 761 mmHg 54%
18:00 +27°C° 0 mm 6 mps 761 mmHg 61%
19:00 +25°C° 0 mm 5 mps 761 mmHg 67%
20:00 +22°C° 0 mm 4 mps 761 mmHg 74%
21:00 +22°C° 0 mm 4 mps 762 mmHg 77%
22:00 +21°C° 0 mm 4 mps 762 mmHg 81%
23:00 +21°C° 0 mm 4 mps 762 mmHg 84%

11 July, Saturday

Time Temperature Precipitation Wind Pressure Humidity
00:00 +21°C° 0 mm 3 mps 761 mmHg 85%
01:00 +21°C° 0 mm 3 mps 761 mmHg 86%
02:00 +20°C° 0 mm 3 mps 761 mmHg 88%
03:00 +20°C° 0 mm 3 mps 761 mmHg 88%
04:00 +20°C° 0 mm 3 mps 761 mmHg 89%
05:00 +20°C° 0 mm 3 mps 761 mmHg 89%
06:00 +22°C° 0 mm 4 mps 761 mmHg 83%
07:00 +25°C° 0 mm 4 mps 761 mmHg 76%
08:00 +26°C° 0 mm 5 mps 761 mmHg 70%
09:00 +28°C° 0.1 mm 5 mps 761 mmHg 65%
10:00 +29°C° 0.1 mm 5 mps 761 mmHg 60%
11:00 +30°C° 0.1 mm 5 mps 761 mmHg 55%
12:00 +30°C° 0 mm 5 mps 760 mmHg 54%
13:00 +30°C° 0 mm 5 mps 760 mmHg 53%
14:00 +30°C° 0 mm 5 mps 760 mmHg 52%
15:00 +30°C° 0 mm 5 mps 760 mmHg 55%
16:00 +29°C° 0 mm 5 mps 760 mmHg 57%
17:00 +29°C° 0 mm 5 mps 760 mmHg 60%
18:00 +27°C° 0 mm 5 mps 760 mmHg 68%
19:00 +26°C° 0 mm 4 mps 760 mmHg 75%
20:00 +24°C° 0 mm 3 mps 760 mmHg 83%
21:00 +22°C° 0 mm 3 mps 760 mmHg 85%
22:00 +23°C° 0 mm 2 mps 760 mmHg 88%
23:00 +21°C° 0 mm 2 mps 760 mmHg 90%
Show more